Wetterdaten: aktuell Samstag, 23.10.2021 04:20
Datum Zeit Temp. 2m Temp. -50cm Temp. -10cm Temp. -5cm Temp. +5cm Feuchte 2m Feuch. -10cm Luftdruck Regen Wind Richtung Richtung Sonnenschein Solar Windben
23.10.2021 04:20 5,7 C 9,8 C 8,8 C 8,3 C 5,2 C 84 % 17 cb 1028,2 hPa 0,0 l/m 0,0 km/h O-NO 68 0 min 0 W/m 1,6 km/h
23.10.2021 04:15 5,7 C 9,8 C 8,8 C 8,3 C 5,3 C 84 % 17 cb 1028,1 hPa 0,0 l/m 0,0 km/h O-NO 68 0 min 0 W/m 1,6 km/h
23.10.2021 04:10 5,8 C 9,8 C 8,9 C 8,3 C 5,4 C 83 % 17 cb 1028,0 hPa 0,0 l/m 1,0 km/h O-NO 68 0 min 0 W/m 3,2 km/h
23.10.2021 04:05 5,8 C 9,8 C 8,9 C 8,3 C 5,3 C 83 % 17 cb 1028,0 hPa 0,0 l/m 0,1 km/h O-NO 68 0 min 0 W/m 1,6 km/h
23.10.2021 04:00 5,8 C 9,8 C 8,9 C 8,3 C 5,2 C 83 % 17 cb 1027,9 hPa 0,0 l/m 0,0 km/h O-NO 68 0 min 0 W/m 1,6 km/h
23.10.2021 03:55 5,7 C 9,8 C 8,9 C 8,3 C 5,2 C 84 % 17 cb 1027,9 hPa 0,0 l/m 0,5 km/h O-NO 68 0 min 0 W/m 3,2 km/h
23.10.2021 03:50 5,7 C 9,8 C 8,9 C 8,3 C 5,2 C 84 % 17 cb 1027,8 hPa 0,0 l/m 0,2 km/h O-NO 68 0 min 0 W/m 1,6 km/h
23.10.2021 03:45 5,7 C 9,8 C 8,9 C 8,3 C 5,2 C 84 % 17 cb 1027,8 hPa 0,0 l/m 0,7 km/h O-NO 68 0 min 0 W/m 3,2 km/h
23.10.2021 03:40 5,8 C 9,8 C 8,9 C 8,3 C 5,3 C 84 % 17 cb 1027,8 hPa 0,0 l/m 0,4 km/h O-NO 68 0 min 0 W/m 3,2 km/h
23.10.2021 03:35 5,8 C 9,8 C 8,9 C 8,3 C 5,4 C 84 % 17 cb 1027,8 hPa 0,0 l/m 1,6 km/h O-NO 68 0 min 0 W/m 3,2 km/h
23.10.2021 03:30 5,8 C 9,8 C 8,9 C 8,3 C 5,4 C 83 % 17 cb 1027,8 hPa 0,0 l/m 2,7 km/h O-NO 68 0 min 0 W/m 4,8 km/h
23.10.2021 03:25 5,9 C 9,8 C 8,9 C 8,3 C 5,5 C 83 % 17 cb 1027,8 hPa 0,0 l/m 3,4 km/h O-NO 68 0 min 0 W/m 4,8 km/h
23.10.2021 03:20 6,1 C 9,8 C 8,9 C 8,3 C 5,5 C 83 % 17 cb 1027,7 hPa 0,0 l/m 1,5 km/h NW 315 0 min 0 W/m 3,2 km/h
23.10.2021 03:15 6,0 C 9,8 C 8,9 C 8,3 C 5,5 C 83 % 17 cb 1027,7 hPa 0,0 l/m 1,0 km/h NW 315 0 min 0 W/m 3,2 km/h
23.10.2021 03:10 6,1 C 9,8 C 8,9 C 8,3 C 5,6 C 83 % 17 cb 1027,7 hPa 0,0 l/m 3,6 km/h NW 315 0 min 0 W/m 11,2 km/h
23.10.2021 03:05 6,1 C 9,8 C 8,9 C 8,3 C 5,5 C 83 % 17 cb 1027,6 hPa 0,0 l/m 4,3 km/h W 270 0 min 0 W/m 11,2 km/h
23.10.2021 03:00 6,1 C 9,8 C 8,9 C 8,3 C 5,5 C 83 % 17 cb 1027,5 hPa 0,0 l/m 4,5 km/h W 270 0 min 0 W/m 9,6 km/h
23.10.2021 02:55 6,1 C 9,8 C 8,9 C 8,3 C 5,6 C 82 % 17 cb 1027,4 hPa 0,0 l/m 7,8 km/h W 270 0 min 0 W/m 11,2 km/h
23.10.2021 02:50 6,1 C 9,9 C 8,9 C 8,3 C 5,6 C 83 % 17 cb 1027,4 hPa 0,0 l/m 6,6 km/h W 270 0 min 0 W/m 11,2 km/h
23.10.2021 02:45 6,2 C 9,9 C 8,9 C 8,3 C 5,7 C 83 % 17 cb 1027,3 hPa 0,0 l/m 5,4 km/h W-NW 292 0 min 0 W/m 11,2 km/h
23.10.2021 02:40 6,2 C 9,9 C 8,9 C 8,3 C 5,8 C 83 % 17 cb 1027,3 hPa 0,0 l/m 3,8 km/h W-NW 292 0 min 0 W/m 8,0 km/h
23.10.2021 02:35 6,2 C 9,9 C 8,9 C 8,3 C 5,9 C 83 % 17 cb 1027,4 hPa 0,0 l/m 5,2 km/h NW 315 0 min 0 W/m 11,2 km/h
23.10.2021 02:30 6,3 C 9,9 C 8,9 C 8,3 C 5,9 C 84 % 17 cb 1027,4 hPa 0,0 l/m 1,8 km/h W 270 0 min 0 W/m 8,0 km/h
23.10.2021 02:25 6,3 C 9,9 C 8,9 C 8,3 C 5,9 C 85 % 17 cb 1027,3 hPa 0,0 l/m 0,0 km/h N 360 0 min 0 W/m 0,0 km/h
23.10.2021 02:20 6,3 C 9,9 C 8,9 C 8,3 C 5,8 C 85 % 17 cb 1027,4 hPa 0,0 l/m 0,0 km/h N 360 0 min 0 W/m 0,0 km/h
23.10.2021 02:15 6,3 C 9,9 C 8,9 C 8,3 C 5,9 C 86 % 17 cb 1027,3 hPa 0,0 l/m 1,7 km/h SW 225 0 min 0 W/m 4,8 km/h
23.10.2021 02:10 6,2 C 9,9 C 8,9 C 8,3 C 5,9 C 86 % 17 cb 1027,3 hPa 0,0 l/m 3,3 km/h SW 225 0 min 0 W/m 6,4 km/h
23.10.2021 02:05 6,1 C 9,9 C 8,9 C 8,3 C 5,7 C 86 % 17 cb 1027,4 hPa 0,0 l/m 0,8 km/h W-NW 292 0 min 0 W/m 3,2 km/h
23.10.2021 02:00 6,0 C 9,9 C 8,9 C 8,3 C 5,6 C 87 % 17 cb 1027,4 hPa 0,0 l/m 1,4 km/h W-NW 292 0 min 0 W/m 3,2 km/h
23.10.2021 01:55 6,0 C 9,9 C 8,9 C 8,3 C 5,6 C 87 % 17 cb 1027,4 hPa 0,0 l/m 1,0 km/h W-NW 292 0 min 0 W/m 3,2 km/h
23.10.2021 01:50 5,9 C 9,9 C 8,9 C 8,3 C 5,6 C 87 % 17 cb 1027,4 hPa 0,0 l/m 0,4 km/h N 360 0 min 0 W/m 1,6 km/h
23.10.2021 01:45 5,9 C 9,9 C 8,9 C 8,3 C 5,6 C 87 % 17 cb 1027,3 hPa 0,0 l/m 0,0 km/h N 360 0 min 0 W/m 0,0 km/h
23.10.2021 01:40 5,8 C 9,9 C 8,9 C 8,3 C 5,5 C 86 % 17 cb 1027,4 hPa 0,0 l/m 0,2 km/h N 360 0 min 0 W/m 1,6 km/h
23.10.2021 01:35 5,8 C 9,9 C 8,9 C 8,4 C 5,5 C 86 % 17 cb 1027,3 hPa 0,0 l/m 1,9 km/h N 360 0 min 0 W/m 3,2 km/h
23.10.2021 01:30 6,1 C 9,9 C 8,9 C 8,4 C 5,7 C 85 % 17 cb 1027,2 hPa 0,0 l/m 2,7 km/h N 360 0 min 0 W/m 4,8 km/h
23.10.2021 01:25 6,2 C 9,9 C 8,9 C 8,4 C 5,8 C 85 % 17 cb 1027,1 hPa 0,0 l/m 1,8 km/h NW 315 0 min 0 W/m 4,8 km/h
23.10.2021 01:20 6,3 C 9,9 C 8,9 C 8,4 C 5,8 C 85 % 17 cb 1027,1 hPa 0,0 l/m 1,7 km/h NO 45 0 min 0 W/m 3,2 km/h
23.10.2021 01:15 6,4 C 9,9 C 8,9 C 8,4 C 5,9 C 84 % 17 cb 1026,9 hPa 0,0 l/m 1,7 km/h NW 315 0 min 0 W/m 4,8 km/h
23.10.2021 01:10 6,4 C 9,9 C 8,9 C 8,4 C 5,9 C 84 % 17 cb 1027,0 hPa 0,0 l/m 2,7 km/h W-NW 292 0 min 0 W/m 6,4 km/h
23.10.2021 01:05 6,6 C 9,9 C 8,9 C 8,4 C 6,1 C 84 % 17 cb 1026,9 hPa 0,0 l/m 3,5 km/h W 270 0 min 0 W/m 12,8 km/h
23.10.2021 01:00 6,4 C 9,9 C 8,9 C 8,4 C 6,1 C 85 % 17 cb 1027,0 hPa 0,0 l/m 5,1 km/h W 270 0 min 0 W/m 12,8 km/h
23.10.2021 00:55 6,3 C 9,9 C 8,9 C 8,4 C 5,9 C 86 % 17 cb 1027,0 hPa 0,0 l/m 3,2 km/h W 270 0 min 0 W/m 8,0 km/h
23.10.2021 00:50 6,1 C 9,9 C 9,1 C 8,4 C 5,4 C 86 % 17 cb 1027,1 hPa 0,0 l/m 2,8 km/h SW 225 0 min 0 W/m 4,8 km/h
23.10.2021 00:45 5,9 C 9,9 C 9,1 C 8,4 C 5,0 C 86 % 17 cb 1027,1 hPa 0,0 l/m 2,2 km/h SW 225 0 min 0 W/m 4,8 km/h
23.10.2021 00:40 5,9 C 9,9 C 9,1 C 8,4 C 4,8 C 86 % 17 cb 1027,1 hPa 0,0 l/m 1,2 km/h SW 225 0 min 0 W/m 3,2 km/h
23.10.2021 00:35 5,9 C 9,9 C 9,1 C 8,4 C 4,8 C 86 % 17 cb 1027,0 hPa 0,0 l/m 1,0 km/h SW 225 0 min 0 W/m 3,2 km/h
23.10.2021 00:30 6,0 C 9,9 C 9,1 C 8,4 C 4,8 C 86 % 17 cb 1026,9 hPa 0,0 l/m 0,3 km/h SW 225 0 min 0 W/m 3,2 km/h
23.10.2021 00:25 6,0 C 9,9 C 9,1 C 8,4 C 4,9 C 87 % 17 cb 1026,9 hPa 0,0 l/m 0,0 km/h N 360 0 min 0 W/m 0,0 km/h
23.10.2021 00:20 5,9 C 9,9 C 9,1 C 8,4 C 5,0 C 87 % 17 cb 1027,0 hPa 0,0 l/m 0,1 km/h S 180 0 min 0 W/m 3,2 km/h
23.10.2021 00:15 5,9 C 9,9 C 9,1 C 8,4 C 5,1 C 87 % 17 cb 1027,0 hPa 0,0 l/m 0,6 km/h S 180 0 min 0 W/m 3,2 km/h
23.10.2021 00:10 6,0 C 9,9 C 9,1 C 8,4 C 5,1 C 87 % 17 cb 1027,0 hPa 0,0 l/m 0,0 km/h S 180 0 min 0 W/m 1,6 km/h
23.10.2021 00:05 5,9 C 9,9 C 9,1 C 8,4 C 5,1 C 87 % 17 cb 1027,0 hPa 0,0 l/m 0,4 km/h S 180 0 min 0 W/m 1,6 km/h
23.10.2021 00:00 5,9 C 9,9 C 9,1 C 8,4 C 5,2 C 87 % 17 cb 1027,0 hPa 0,0 l/m 0,0 km/h N 360 0 min 0 W/m 0,0 km/h
22.10.2021 23:55 6,1 C 9,9 C 9,1 C 8,4 C 5,2 C 87 % 17 cb 1027,0 hPa 0,0 l/m 0,0 km/h N 360 0 min 0 W/m 0,0 km/h
22.10.2021 23:50 6,0 C 9,9 C 9,1 C 8,4 C 5,2 C 87 % 17 cb 1026,9 hPa 0,0 l/m 0,0 km/h N 360 0 min 0 W/m 0,0 km/h
22.10.2021 23:45 5,9 C 9,9 C 9,1 C 8,4 C 5,1 C 87 % 17 cb 1026,8 hPa 0,0 l/m 0,1 km/h S 180 0 min 0 W/m 1,6 km/h
22.10.2021 23:40 5,9 C 9,9 C 9,1 C 8,4 C 5,2 C 87 % 17 cb 1026,8 hPa 0,0 l/m 0,4 km/h S 180 0 min 0 W/m 1,6 km/h
22.10.2021 23:35 5,9 C 9,9 C 9,1 C 8,4 C 5,1 C 87 % 17 cb 1026,8 hPa 0,0 l/m 0,6 km/h S 180 0 min 0 W/m 1,6 km/h
22.10.2021 23:30 5,9 C 9,9 C 9,1 C 8,6 C 5,2 C 87 % 17 cb 1026,7 hPa 0,0 l/m 1,0 km/h S 180 0 min 0 W/m 3,2 km/h
22.10.2021 23:25 5,8 C 9,9 C 9,1 C 8,6 C 5,2 C 87 % 17 cb 1026,8 hPa 0,0 l/m 0,1 km/h S 180 0 min 0 W/m 1,6 km/h
22.10.2021 23:20 5,8 C 9,9 C 9,1 C 8,6 C 5,1 C 87 % 17 cb 1026,7 hPa 0,0 l/m 0,0 km/h N 360 0 min 0 W/m 0,0 km/h
22.10.2021 23:15 5,7 C 9,9 C 9,1 C 8,6 C 5,0 C 87 % 17 cb 1026,8 hPa 0,0 l/m 0,5 km/h S 180 0 min 0 W/m 1,6 km/h
22.10.2021 23:10 5,6 C 9,9 C 9,1 C 8,6 C 4,8 C 87 % 17 cb 1026,8 hPa 0,0 l/m 0,7 km/h S 180 0 min 0 W/m 3,2 km/h
22.10.2021 23:05 5,4 C 9,9 C 9,2 C 8,6 C 4,8 C 87 % 17 cb 1026,8 hPa 0,0 l/m 1,8 km/h S 180 0 min 0 W/m 3,2 km/h
22.10.2021 23:00 5,2 C 9,9 C 9,2 C 8,6 C 4,3 C 87 % 17 cb 1026,7 hPa 0,0 l/m 2,8 km/h S 180 0 min 0 W/m 4,8 km/h
22.10.2021 22:55 5,1 C 9,9 C 9,2 C 8,6 C 3,7 C 87 % 17 cb 1026,7 hPa 0,0 l/m 3,2 km/h S 180 0 min 0 W/m 4,8 km/h
22.10.2021 22:50 5,1 C 9,9 C 9,2 C 8,6 C 3,7 C 86 % 17 cb 1026,7 hPa 0,0 l/m 3,0 km/h S 180 0 min 0 W/m 4,8 km/h
22.10.2021 22:45 5,1 C 9,9 C 9,2 C 8,6 C 3,3 C 86 % 17 cb 1026,7 hPa 0,0 l/m 2,9 km/h S-SW 202 0 min 0 W/m 6,4 km/h
22.10.2021 22:40 5,1 C 9,9 C 9,2 C 8,6 C 2,9 C 86 % 17 cb 1026,6 hPa 0,0 l/m 2,4 km/h S-SW 202 0 min 0 W/m 3,2 km/h
22.10.2021 22:35 5,0 C 9,9 C 9,2 C 8,6 C 3,0 C 86 % 17 cb 1026,6 hPa 0,0 l/m 2,8 km/h S-SW 202 0 min 0 W/m 4,8 km/h
22.10.2021 22:30 5,1 C 9,9 C 9,2 C 8,6 C 3,0 C 86 % 17 cb 1026,4 hPa 0,0 l/m 1,1 km/h S-SW 202 0 min 0 W/m 3,2 km/h
22.10.2021 22:25 5,1 C 9,9 C 9,2 C 8,6 C 3,1 C 86 % 17 cb 1026,4 hPa 0,0 l/m 0,8 km/h S-SW 202 0 min 0 W/m 1,6 km/h
22.10.2021 22:20 5,1 C 9,9 C 9,2 C 8,6 C 3,0 C 86 % 17 cb 1026,4 hPa 0,0 l/m 2,6 km/h S-SW 202 0 min 0 W/m 4,8 km/h
22.10.2021 22:15 5,1 C 9,9 C 9,2 C 8,7 C 3,2 C 85 % 17 cb 1026,4 hPa 0,0 l/m 2,4 km/h S-SW 202 0 min 0 W/m 3,2 km/h
22.10.2021 22:10 5,3 C 9,9 C 9,2 C 8,7 C 3,0 C 86 % 17 cb 1026,3 hPa 0,0 l/m 1,9 km/h SW 225 0 min 0 W/m 3,2 km/h
22.10.2021 22:05 5,3 C 9,9 C 9,2 C 8,7 C 3,2 C 85 % 17 cb 1026,2 hPa 0,0 l/m 2,0 km/h SW 225 0 min 0 W/m 4,8 km/h
22.10.2021 22:00 5,4 C 9,9 C 9,3 C 8,7 C 3,1 C 85 % 17 cb 1026,1 hPa 0,0 l/m 2,0 km/h SW 225 0 min 0 W/m 3,2 km/h
22.10.2021 21:55 5,3 C 9,9 C 9,3 C 8,7 C 3,0 C 85 % 17 cb 1026,0 hPa 0,0 l/m 1,4 km/h SW 225 0 min 0 W/m 3,2 km/h
22.10.2021 21:50 5,4 C 9,9 C 9,3 C 8,7 C 3,2 C 85 % 17 cb 1026,0 hPa 0,0 l/m 2,8 km/h SW 225 0 min 0 W/m 4,8 km/h
22.10.2021 21:45 5,5 C 9,9 C 9,3 C 8,7 C 3,4 C 84 % 17 cb 1025,8 hPa 0,0 l/m 2,4 km/h W 270 0 min 0 W/m 4,8 km/h
22.10.2021 21:40 5,7 C 9,9 C 9,3 C 8,8 C 3,5 C 84 % 17 cb 1025,7 hPa 0,0 l/m 2,3 km/h W 270 0 min 0 W/m 3,2 km/h
22.10.2021 21:35 5,7 C 9,9 C 9,3 C 8,8 C 3,6 C 85 % 17 cb 1025,6 hPa 0,0 l/m 2,6 km/h W 270 0 min 0 W/m 3,2 km/h
22.10.2021 21:30 5,7 C 9,9 C 9,3 C 8,8 C 3,3 C 85 % 17 cb 1025,6 hPa 0,0 l/m 2,5 km/h W 270 0 min 0 W/m 4,8 km/h
22.10.2021 21:25 5,7 C 9,9 C 9,3 C 8,8 C 3,6 C 85 % 17 cb 1025,6 hPa 0,0 l/m 2,9 km/h W 270 0 min 0 W/m 4,8 km/h
22.10.2021 21:20 5,7 C 9,9 C 9,3 C 8,8 C 3,5 C 84 % 17 cb 1025,6 hPa 0,0 l/m 1,7 km/h W 270 0 min 0 W/m 3,2 km/h
22.10.2021 21:15 5,9 C 9,9 C 9,3 C 8,8 C 3,5 C 84 % 17 cb 1025,4 hPa 0,0 l/m 1,8 km/h W 270 0 min 0 W/m 3,2 km/h
22.10.2021 21:10 5,9 C 9,9 C 9,3 C 8,8 C 3,7 C 84 % 17 cb 1025,4 hPa 0,0 l/m 1,8 km/h W 270 0 min 0 W/m 3,2 km/h
22.10.2021 21:05 6,1 C 9,9 C 9,3 C 8,9 C 3,8 C 84 % 17 cb 1025,3 hPa 0,0 l/m 2,9 km/h W 270 0 min 0 W/m 4,8 km/h
22.10.2021 21:00 6,1 C 9,9 C 9,3 C 8,9 C 3,9 C 83 % 17 cb 1025,2 hPa 0,0 l/m 2,5 km/h W 270 0 min 0 W/m 4,8 km/h
22.10.2021 20:55 6,3 C 9,9 C 9,3 C 8,9 C 3,7 C 83 % 17 cb 1025,1 hPa 0,0 l/m 1,9 km/h W 270 0 min 0 W/m 3,2 km/h
22.10.2021 20:50 6,5 C 9,9 C 9,3 C 8,9 C 3,7 C 83 % 17 cb 1025,0 hPa 0,0 l/m 0,2 km/h W 270 0 min 0 W/m 1,6 km/h
22.10.2021 20:45 6,7 C 9,9 C 9,3 C 8,9 C 3,9 C 83 % 17 cb 1024,9 hPa 0,0 l/m 0,6 km/h W 270 0 min 0 W/m 1,6 km/h
22.10.2021 20:40 6,7 C 9,9 C 9,3 C 8,9 C 4,2 C 84 % 17 cb 1024,7 hPa 0,0 l/m 0,4 km/h W 270 0 min 0 W/m 1,6 km/h
22.10.2021 20:35 6,6 C 9,9 C 9,3 C 8,9 C 4,4 C 84 % 17 cb 1024,8 hPa 0,0 l/m 1,6 km/h W 270 0 min 0 W/m 4,8 km/h
22.10.2021 20:30 6,4 C 9,9 C 9,3 C 8,9 C 4,5 C 84 % 17 cb 1024,8 hPa 0,0 l/m 1,9 km/h W 270 0 min 0 W/m 3,2 km/h
22.10.2021 20:25 6,3 C 9,9 C 9,3 C 8,9 C 4,2 C 84 % 17 cb 1024,7 hPa 0,0 l/m 1,5 km/h W 270 0 min 0 W/m 4,8 km/h
22.10.2021 20:20 6,3 C 9,9 C 9,4 C 8,9 C 4,1 C 83 % 17 cb 1024,7 hPa 0,0 l/m 0,0 km/h N 360 0 min 0 W/m 0,0 km/h
22.10.2021 20:15 6,5 C 9,9 C 9,4 C 8,9 C 4,1 C 83 % 17 cb 1024,6 hPa 0,0 l/m 0,0 km/h N 360 0 min 0 W/m 0,0 km/h
22.10.2021 20:10 6,6 C 9,9 C 9,4 C 8,9 C 4,4 C 83 % 17 cb 1024,5 hPa 0,0 l/m 0,0 km/h N 360 0 min 0 W/m 0,0 km/h
22.10.2021 20:05 6,5 C 9,9 C 9,4 C 8,9 C 4,3 C 83 % 17 cb 1024,4 hPa 0,0 l/m 0,2 km/h W 270 0 min 0 W/m 1,6 km/h
22.10.2021 20:00 6,5 C 9,9 C 9,4 C 8,9 C 4,3 C 83 % 17 cb 1024,2 hPa 0,0 l/m 1,4 km/h W 270 0 min 0 W/m 3,2 km/h
22.10.2021 19:55 6,6 C 9,9 C 9,4 C 8,9 C 4,3 C 83 % 17 cb 1024,3 hPa 0,0 l/m 2,3 km/h W 270 0 min 0 W/m 3,2 km/h
22.10.2021 19:50 6,8 C 9,9 C 9,4 C 8,9 C 4,3 C 82 % 17 cb 1024,1 hPa 0,0 l/m 1,3 km/h W 270 0 min 0 W/m 3,2 km/h
22.10.2021 19:45 6,8 C 9,9 C 9,4 C 8,9 C 4,3 C 83 % 17 cb 1023,9 hPa 0,0 l/m 0,1 km/h W 270 0 min 0 W/m 1,6 km/h
22.10.2021 19:40 7,0 C 9,9 C 9,4 C 9,1 C 4,8 C 83 % 17 cb 1023,8 hPa 0,0 l/m 1,3 km/h W 270 0 min 0 W/m 3,2 km/h
22.10.2021 19:35 7,0 C 9,9 C 9,4 C 9,1 C 4,8 C 83 % 17 cb 1023,5 hPa 0,0 l/m 3,1 km/h W 270 0 min 0 W/m 4,8 km/h
22.10.2021 19:30 6,9 C 9,9 C 9,4 C 9,1 C 4,8 C 83 % 17 cb 1023,5 hPa 0,0 l/m 3,0 km/h W 270 0 min 0 W/m 4,8 km/h
22.10.2021 19:25 6,9 C 9,9 C 9,4 C 9,1 C 4,8 C 83 % 17 cb 1023,4 hPa 0,0 l/m 2,2 km/h W 270 0 min 0 W/m 4,8 km/h
22.10.2021 19:20 6,8 C 9,9 C 9,4 C 9,1 C 4,8 C 83 % 17 cb 1023,4 hPa 0,0 l/m 2,7 km/h W 270 0 min 0 W/m 4,8 km/h
22.10.2021 19:15 6,8 C 9,9 C 9,4 C 9,1 C 4,8 C 83 % 17 cb 1023,3 hPa 0,0 l/m 4,1 km/h W 270 0 min 0 W/m 6,4 km/h
22.10.2021 19:10 6,8 C 9,9 C 9,4 C 9,1 C 4,7 C 83 % 17 cb 1023,2 hPa 0,0 l/m 2,6 km/h W-SW 248 0 min 0 W/m 4,8 km/h
22.10.2021 19:05 7,0 C 9,9 C 9,4 C 9,1 C 4,9 C 82 % 17 cb 1023,1 hPa 0,0 l/m 3,0 km/h SW 225 0 min 0 W/m 4,8 km/h
22.10.2021 19:00 7,4 C 9,9 C 9,4 C 9,1 C 4,6 C 81 % 17 cb 1022,8 hPa 0,0 l/m 0,5 km/h O 90 0 min 0 W/m 3,2 km/h
22.10.2021 18:55 7,6 C 9,9 C 9,4 C 9,1 C 4,8 C 81 % 17 cb 1022,7 hPa 0,0 l/m 2,4 km/h NO 45 0 min 0 W/m 4,8 km/h
22.10.2021 18:50 7,7 C 9,9 C 9,3 C 9,1 C 5,1 C 81 % 17 cb 1022,5 hPa 0,0 l/m 2,6 km/h S-SO 158 0 min 0 W/m 6,4 km/h
22.10.2021 18:45 7,6 C 9,9 C 9,3 C 9,1 C 4,6 C 81 % 17 cb 1022,5 hPa 0,0 l/m 2,1 km/h S-SO 158 0 min 0 W/m 4,8 km/h
22.10.2021 18:40 7,7 C 9,9 C 9,3 C 9,1 C 3,9 C 80 % 17 cb 1022,5 hPa 0,0 l/m 0,5 km/h S-SO 158 0 min 0 W/m 3,2 km/h
22.10.2021 18:35 7,8 C 9,9 C 9,3 C 9,1 C 4,3 C 80 % 17 cb 1022,4 hPa 0,0 l/m 0,1 km/h S-SO 158 0 min 0 W/m 1,6 km/h
22.10.2021 18:30 8,1 C 9,9 C 9,3 C 9,1 C 5,6 C 79 % 17 cb 1022,2 hPa 0,0 l/m 2,2 km/h S-SO 158 0 min 0 W/m 4,8 km/h
22.10.2021 18:25 8,4 C 9,9 C 9,3 C 9,1 C 5,7 C 79 % 17 cb 1022,0 hPa 0,0 l/m 1,7 km/h O-SO 112 0 min 0 W/m 4,8 km/h
22.10.2021 18:20 8,6 C 9,9 C 9,3 C 9,1 C 6,3 C 78 % 17 cb 1021,8 hPa 0,0 l/m 1,7 km/h SO 135 0 min 0 W/m 8,0 km/h
22.10.2021 18:15 8,6 C 9,9 C 9,3 C 9,1 C 6,7 C 78 % 17 cb 1021,9 hPa 0,0 l/m 4,2 km/h SO 135 0 min 4 W/m 11,2 km/h
22.10.2021 18:10 8,6 C 9,9 C 9,3 C 9,1 C 6,3 C 78 % 17 cb 1021,9 hPa 0,0 l/m 3,7 km/h O 90 0 min 6 W/m 11,2 km/h
22.10.2021 18:05 8,7 C 9,9 C 9,3 C 9,1 C 6,3 C 78 % 17 cb 1021,6 hPa 0,0 l/m 2,3 km/h O-SO 112 0 min 8 W/m 6,4 km/h
22.10.2021 18:00 8,8 C 9,9 C 9,3 C 9,1 C 6,7 C 78 % 17 cb 1021,5 hPa 0,0 l/m 2,5 km/h NW 315 0 min 9 W/m 4,8 km/h
22.10.2021 17:55 8,8 C 9,9 C 9,3 C 9,1 C 6,6 C 78 % 17 cb 1021,3 hPa 0,0 l/m 0,8 km/h O-NO 68 0 min 11 W/m 3,2 km/h
22.10.2021 17:50 9,0 C 9,9 C 9,3 C 9,1 C 6,7 C 77 % 17 cb 1021,1 hPa 0,0 l/m 2,2 km/h O-NO 68 0 min 12 W/m 6,4 km/h
22.10.2021 17:45 9,2 C 9,9 C 9,3 C 9,1 C 7,1 C 77 % 17 cb 1020,9 hPa 0,0 l/m 2,8 km/h O 90 0 min 13 W/m 9,6 km/h
22.10.2021 17:40 9,2 C 9,9 C 9,3 C 9,1 C 7,2 C 76 % 17 cb 1020,8 hPa 0,0 l/m 4,5 km/h NO 45 0 min 14 W/m 11,2 km/h
22.10.2021 17:35 9,3 C 9,9 C 9,3 C 9,1 C 7,3 C 77 % 17 cb 1020,6 hPa 0,0 l/m 0,4 km/h NO 45 0 min 16 W/m 3,2 km/h
22.10.2021 17:30 9,5 C 9,9 C 9,3 C 9,1 C 7,6 C 76 % 17 cb 1020,4 hPa 0,0 l/m 2,5 km/h O-SO 112 0 min 17 W/m 11,2 km/h
22.10.2021 17:25 9,6 C 9,9 C 9,2 C 9,1 C 7,9 C 76 % 17 cb 1020,3 hPa 0,0 l/m 4,6 km/h O 90 0 min 18 W/m 11,2 km/h
22.10.2021 17:20 9,6 C 9,9 C 9,2 C 9,1 C 7,9 C 76 % 17 cb 1020,1 hPa 0,0 l/m 3,3 km/h NO 45 0 min 19 W/m 6,4 km/h
22.10.2021 17:15 9,9 C 9,9 C 9,2 C 9,1 C 8,4 C 75 % 17 cb 1019,9 hPa 0,0 l/m 5,3 km/h O 90 0 min 20 W/m 12,8 km/h
22.10.2021 17:10 10,1 C 9,9 C 9,2 C 9,1 C 8,6 C 74 % 17 cb 1019,8 hPa 0,0 l/m 9,9 km/h O 90 0 min 21 W/m 16,0 km/h
22.10.2021 17:05 10,3 C 9,9 C 9,2 C 9,1 C 8,8 C 74 % 17 cb 1019,8 hPa 0,0 l/m 7,8 km/h O 90 0 min 23 W/m 14,4 km/h
22.10.2021 17:00 10,6 C 9,9 C 9,2 C 9,1 C 8,9 C 73 % 17 cb 1019,7 hPa 0,0 l/m 6,9 km/h O 90 0 min 24 W/m 12,8 km/h
22.10.2021 16:55 10,7 C 9,9 C 9,2 C 9,1 C 9,3 C 72 % 17 cb 1019,5 hPa 0,0 l/m 5,8 km/h O 90 0 min 25 W/m 12,8 km/h
22.10.2021 16:50 10,8 C 9,9 C 9,2 C 8,9 C 9,4 C 72 % 17 cb 1019,5 hPa 0,0 l/m 7,8 km/h O 90 0 min 26 W/m 14,4 km/h
22.10.2021 16:45 10,9 C 9,9 C 9,2 C 8,9 C 9,8 C 73 % 17 cb 1019,4 hPa 0,0 l/m 4,5 km/h O 90 0 min 26 W/m 12,8 km/h
22.10.2021 16:40 11,0 C 9,9 C 9,2 C 8,9 C 11,9 C 72 % 17 cb 1019,3 hPa 0,0 l/m 3,9 km/h O-SO 112 0 min 100 W/m 9,6 km/h
22.10.2021 16:35 11,2 C 9,9 C 9,1 C 8,9 C 18,1 C 72 % 17 cb 1019,3 hPa 0,0 l/m 7,0 km/h O 90 5 min 180 W/m 14,4 km/h
22.10.2021 16:30 11,3 C 9,9 C 9,1 C 8,9 C 17,9 C 72 % 17 cb 1019,2 hPa 0,0 l/m 5,3 km/h O 90 5 min 179 W/m 11,2 km/h
22.10.2021 16:25 11,3 C 9,9 C 9,1 C 8,9 C 18,8 C 72 % 17 cb 1019,1 hPa 0,0 l/m 5,2 km/h O 90 5 min 205 W/m 11,2 km/h
22.10.2021 16:20 11,4 C 9,9 C 9,1 C 8,9 C 18,6 C 71 % 17 cb 1019,1 hPa 0,0 l/m 6,1 km/h O 90 5 min 217 W/m 12,8 km/h
22.10.2021 16:15 11,4 C 9,9 C 9,1 C 8,9 C 17,8 C 71 % 17 cb 1018,9 hPa 0,0 l/m 5,7 km/h NO 45 5 min 229 W/m 9,6 km/h
22.10.2021 16:10 11,4 C 9,9 C 9,1 C 8,9 C 16,0 C 70 % 17 cb 1018,9 hPa 0,0 l/m 9,4 km/h O 90 5 min 241 W/m 16,0 km/h
22.10.2021 16:05 11,6 C 9,9 C 9,1 C 8,9 C 11,2 C 69 % 17 cb 1018,8 hPa 0,0 l/m 10,3 km/h O 90 5 min 251 W/m 19,2 km/h
22.10.2021 16:00 11,8 C 9,9 C 9,1 C 8,9 C 10,8 C 69 % 17 cb 1018,6 hPa 0,0 l/m 11,3 km/h O 90 5 min 262 W/m 17,6 km/h
22.10.2021 15:55 11,9 C 10,0 C 9,1 C 8,9 C 10,9 C 69 % 17 cb 1018,5 hPa 0,0 l/m 9,4 km/h O 90 5 min 273 W/m 16,0 km/h
22.10.2021 15:50 12,1 C 10,0 C 9,1 C 8,9 C 11,0 C 68 % 17 cb 1018,3 hPa 0,0 l/m 10,0 km/h O-NO 68 5 min 283 W/m 17,6 km/h
22.10.2021 15:45 12,3 C 10,0 C 9,1 C 8,9 C 11,2 C 67 % 17 cb 1018,2 hPa 0,0 l/m 6,6 km/h O-NO 68 5 min 295 W/m 16,0 km/h
22.10.2021 15:40 12,4 C 10,0 C 9,1 C 8,9 C 11,6 C 65 % 17 cb 1018,2 hPa 0,0 l/m 5,2 km/h O 90 5 min 306 W/m 11,2 km/h
22.10.2021 15:35 12,4 C 10,0 C 9,1 C 8,9 C 11,7 C 66 % 17 cb 1018,2 hPa 0,0 l/m 7,1 km/h O-NO 68 5 min 315 W/m 12,8 km/h
22.10.2021 15:30 12,4 C 10,0 C 9,1 C 8,9 C 11,3 C 65 % 17 cb 1018,1 hPa 0,0 l/m 6,5 km/h O-NO 68 5 min 325 W/m 11,2 km/h
22.10.2021 15:25 12,4 C 10,0 C 9,1 C 8,8 C 11,3 C 65 % 17 cb 1018,1 hPa 0,0 l/m 7,1 km/h NO 45 5 min 337 W/m 12,8 km/h
22.10.2021 15:20 12,3 C 10,0 C 9,1 C 8,8 C 11,3 C 65 % 17 cb 1018,1 hPa 0,0 l/m 7,6 km/h O 90 5 min 345 W/m 12,8 km/h
22.10.2021 15:15 12,3 C 10,0 C 8,9 C 8,8 C 11,3 C 64 % 17 cb 1018,0 hPa 0,0 l/m 6,7 km/h O-NO 68 5 min 354 W/m 11,2 km/h
22.10.2021 15:10 12,3 C 10,0 C 8,9 C 8,8 C 11,3 C 65 % 17 cb 1018,1 hPa 0,0 l/m 6,5 km/h O 90 5 min 363 W/m 9,6 km/h
22.10.2021 15:05 12,3 C 10,0 C 8,9 C 8,7 C 11,4 C 64 % 17 cb 1018,2 hPa 0,0 l/m 6,8 km/h O 90 5 min 373 W/m 11,2 km/h
22.10.2021 15:00 12,3 C 10,0 C 8,9 C 8,7 C 11,5 C 65 % 17 cb 1018,1 hPa 0,0 l/m 5,7 km/h O 90 5 min 381 W/m 11,2 km/h
22.10.2021 14:55 12,3 C 10,0 C 8,9 C 8,7 C 12,1 C 64 % 17 cb 1018,1 hPa 0,0 l/m 6,9 km/h O 90 5 min 389 W/m 12,8 km/h
22.10.2021 14:50 12,4 C 10,0 C 8,9 C 8,7 C 13,2 C 65 % 17 cb 1018,1 hPa 0,0 l/m 7,0 km/h O 90 5 min 400 W/m 12,8 km/h
22.10.2021 14:45 12,3 C 10,0 C 8,9 C 8,6 C 11,8 C 65 % 17 cb 1018,1 hPa 0,0 l/m 4,5 km/h O-NO 68 5 min 407 W/m 9,6 km/h
22.10.2021 14:40 12,3 C 10,0 C 8,9 C 8,6 C 12,0 C 64 % 17 cb 1018,1 hPa 0,0 l/m 4,8 km/h O-NO 68 5 min 415 W/m 8,0 km/h
22.10.2021 14:35 12,2 C 10,0 C 8,9 C 8,6 C 12,2 C 63 % 17 cb 1018,2 hPa 0,0 l/m 7,2 km/h O-NO 68 5 min 425 W/m 12,8 km/h
22.10.2021 14:30 12,2 C 10,0 C 8,9 C 8,6 C 12,9 C 64 % 17 cb 1018,1 hPa 0,0 l/m 6,3 km/h O-SO 112 5 min 432 W/m 12,8 km/h
22.10.2021 14:25 12,2 C 10,0 C 8,9 C 8,6 C 14,4 C 64 % 17 cb 1018,2 hPa 0,0 l/m 7,3 km/h O 90 5 min 437 W/m 14,4 km/h
22.10.2021 14:20 12,1 C 10,0 C 8,9 C 8,6 C 20,9 C 64 % 17 cb 1018,3 hPa 0,0 l/m 5,2 km/h O 90 5 min 443 W/m 12,8 km/h
22.10.2021 14:15 12,1 C 10,0 C 8,9 C 8,6 C 22,7 C 66 % 17 cb 1018,4 hPa 0,0 l/m 9,2 km/h O-NO 68 5 min 449 W/m 14,4 km/h
22.10.2021 14:10 12,1 C 10,0 C 8,9 C 8,6 C 23,4 C 67 % 17 cb 1018,5 hPa 0,0 l/m 7,8 km/h O-NO 68 5 min 454 W/m 14,4 km/h
22.10.2021 14:05 12,0 C 10,0 C 8,9 C 8,4 C 23,5 C 68 % 17 cb 1018,6 hPa 0,0 l/m 4,6 km/h O 90 5 min 459 W/m 9,6 km/h
22.10.2021 14:00 11,9 C 10,0 C 8,9 C 8,4 C 22,7 C 65 % 17 cb 1018,4 hPa 0,0 l/m 8,4 km/h O 90 5 min 468 W/m 16,0 km/h
22.10.2021 13:55 11,9 C 10,0 C 8,9 C 8,4 C 22,8 C 67 % 17 cb 1018,4 hPa 0,0 l/m 7,6 km/h O-NO 68 5 min 468 W/m 14,4 km/h
22.10.2021 13:50 11,9 C 10,0 C 8,9 C 8,4 C 22,8 C 67 % 17 cb 1018,5 hPa 0,0 l/m 7,0 km/h O 90 5 min 473 W/m 12,8 km/h
22.10.2021 13:45 11,8 C 10,0 C 8,9 C 8,4 C 21,6 C 68 % 17 cb 1018,6 hPa 0,0 l/m 9,7 km/h O 90 5 min 477 W/m 14,4 km/h
22.10.2021 13:40 11,7 C 10,0 C 8,9 C 8,4 C 22,1 C 67 % 17 cb 1018,5 hPa 0,0 l/m 7,6 km/h NO 45 5 min 476 W/m 12,8 km/h
22.10.2021 13:35 11,5 C 10,0 C 8,9 C 8,4 C 22,2 C 69 % 17 cb 1018,7 hPa 0,0 l/m 6,0 km/h O-NO 68 5 min 478 W/m 9,6 km/h
22.10.2021 13:30 11,3 C 10,0 C 8,9 C 8,4 C 20,9 C 67 % 17 cb 1018,8 hPa 0,0 l/m 8,0 km/h O 90 5 min 479 W/m 12,8 km/h
22.10.2021 13:25 11,3 C 10,0 C 8,9 C 8,4 C 20,5 C 69 % 17 cb 1018,8 hPa 0,0 l/m 6,9 km/h O 90 5 min 481 W/m 11,2 km/h
22.10.2021 13:20 11,1 C 10,0 C 8,9 C 8,4 C 19,7 C 67 % 17 cb 1018,9 hPa 0,0 l/m 5,3 km/h O 90 5 min 483 W/m 8,0 km/h
22.10.2021 13:15 11,1 C 10,0 C 8,9 C 8,4 C 15,4 C 66 % 17 cb 1018,9 hPa 0,0 l/m 5,5 km/h O 90 5 min 484 W/m 8,0 km/h
22.10.2021 13:10 10,9 C 10,0 C 8,9 C 8,4 C 10,2 C 69 % 17 cb 1019,2 hPa 0,0 l/m 3,7 km/h O-SO 112 5 min 485 W/m 9,6 km/h
22.10.2021 13:05 10,9 C 10,1 C 8,9 C 8,4 C 9,8 C 69 % 17 cb 1019,2 hPa 0,0 l/m 3,9 km/h O 90 5 min 486 W/m 6,4 km/h
22.10.2021 13:00 10,7 C 10,0 C 8,9 C 8,4 C 9,6 C 72 % 17 cb 1019,3 hPa 0,0 l/m 2,8 km/h O-NO 68 5 min 485 W/m 6,4 km/h
22.10.2021 12:55 10,6 C 10,1 C 8,9 C 8,4 C 9,7 C 71 % 17 cb 1019,4 hPa 0,0 l/m 2,4 km/h N-NO 22 5 min 486 W/m 4,8 km/h
22.10.2021 12:50 10,6 C 10,1 C 8,9 C 8,4 C 9,6 C 72 % 17 cb 1019,4 hPa 0,0 l/m 4,1 km/h N 360 5 min 486 W/m 6,4 km/h
22.10.2021 12:45 10,4 C 10,1 C 8,9 C 8,4 C 9,4 C 73 % 17 cb 1019,5 hPa 0,0 l/m 2,2 km/h N-NO 22 5 min 483 W/m 6,4 km/h
22.10.2021 12:40 10,3 C 10,1 C 8,9 C 8,4 C 9,4 C 73 % 17 cb 1019,5 hPa 0,0 l/m 2,2 km/h O-NO 68 5 min 484 W/m 4,8 km/h
22.10.2021 12:35 10,2 C 10,1 C 8,9 C 8,4 C 9,6 C 73 % 17 cb 1019,6 hPa 0,0 l/m 0,5 km/h S 180 5 min 482 W/m 1,6 km/h
22.10.2021 12:30 10,2 C 10,1 C 8,9 C 8,4 C 9,4 C 73 % 17 cb 1019,7 hPa 0,0 l/m 1,0 km/h S 180 5 min 481 W/m 3,2 km/h
22.10.2021 12:25 9,8 C 10,1 C 8,9 C 8,4 C 9,2 C 74 % 17 cb 1019,9 hPa 0,0 l/m 1,3 km/h S 180 5 min 477 W/m 3,2 km/h
22.10.2021 12:20 9,6 C 10,1 C 8,9 C 8,4 C 8,8 C 75 % 17 cb 1020,0 hPa 0,0 l/m 2,3 km/h O-NO 68 5 min 475 W/m 4,8 km/h
22.10.2021 12:15 9,6 C 10,1 C 8,9 C 8,4 C 8,7 C 76 % 17 cb 1020,0 hPa 0,0 l/m 2,2 km/h O-NO 68 5 min 470 W/m 4,8 km/h
22.10.2021 12:10 9,6 C 10,1 C 8,9 C 8,4 C 8,8 C 77 % 17 cb 1020,0 hPa 0,0 l/m 3,4 km/h O-NO 68 5 min 469 W/m 6,4 km/h
22.10.2021 12:05 9,5 C 10,1 C 8,9 C 8,4 C 8,8 C 77 % 17 cb 1020,1 hPa 0,0 l/m 4,4 km/h O 90 5 min 463 W/m 6,4 km/h
22.10.2021 12:00 9,3 C 10,1 C 8,9 C 8,4 C 8,6 C 78 % 17 cb 1020,1 hPa 0,0 l/m 3,4 km/h O 90 5 min 460 W/m 6,4 km/h
22.10.2021 11:55 9,2 C 10,1 C 8,9 C 8,4 C 8,6 C 78 % 17 cb 1020,2 hPa 0,0 l/m 4,3 km/h O-NO 68 5 min 456 W/m 8,0 km/h
22.10.2021 11:50 9,1 C 10,1 C 8,9 C 8,4 C 8,3 C 79 % 17 cb 1020,3 hPa 0,0 l/m 3,6 km/h NO 45 5 min 452 W/m 8,0 km/h
22.10.2021 11:45 8,9 C 10,1 C 9,1 C 8,4 C 8,1 C 79 % 17 cb 1020,3 hPa 0,0 l/m 3,9 km/h N 360 5 min 447 W/m 6,4 km/h
22.10.2021 11:40 8,8 C 10,1 C 9,1 C 8,4 C 8,1 C 80 % 17 cb 1020,3 hPa 0,0 l/m 2,5 km/h N-NO 22 5 min 442 W/m 6,4 km/h
22.10.2021 11:35 8,7 C 10,1 C 9,1 C 8,4 C 7,9 C 80 % 17 cb 1020,4 hPa 0,0 l/m 2,7 km/h N 360 5 min 435 W/m 6,4 km/h
22.10.2021 11:30 8,6 C 10,1 C 9,1 C 8,4 C 7,8 C 81 % 17 cb 1020,4 hPa 0,0 l/m 1,6 km/h N 360 5 min 429 W/m 3,2 km/h
22.10.2021 11:25 8,4 C 10,1 C 9,1 C 8,4 C 7,9 C 81 % 17 cb 1020,5 hPa 0,0 l/m 2,1 km/h N 360 5 min 422 W/m 4,8 km/h
22.10.2021 11:20 8,3 C 10,1 C 9,1 C 8,4 C 8,1 C 82 % 17 cb 1020,5 hPa 0,0 l/m 2,9 km/h O 90 5 min 415 W/m 4,8 km/h
22.10.2021 11:15 8,2 C 10,1 C 9,1 C 8,4 C 8,8 C 82 % 17 cb 1020,6 hPa 0,0 l/m 3,4 km/h O 90 5 min 410 W/m 6,4 km/h
22.10.2021 11:10 7,9 C 10,1 C 9,1 C 8,4 C 8,6 C 83 % 17 cb 1020,8 hPa 0,0 l/m 2,5 km/h O-NO 68 5 min 402 W/m 4,8 km/h
22.10.2021 11:05 7,6 C 10,1 C 9,1 C 8,4 C 7,9 C 83 % 17 cb 1020,9 hPa 0,0 l/m 2,2 km/h N 360 5 min 394 W/m 4,8 km/h
22.10.2021 11:00 7,4 C 10,2 C 9,1 C 8,4 C 7,1 C 84 % 17 cb 1021,1 hPa 0,0 l/m 3,5 km/h N-NO 22 5 min 385 W/m 6,4 km/h
22.10.2021 10:55 7,4 C 10,2 C 9,1 C 8,4 C 6,9 C 83 % 17 cb 1020,9 hPa 0,0 l/m 4,7 km/h N 360 5 min 378 W/m 6,4 km/h
22.10.2021 10:50 7,4 C 10,2 C 9,1 C 8,4 C 7,0 C 84 % 17 cb 1020,9 hPa 0,0 l/m 4,2 km/h N 360 5 min 370 W/m 6,4 km/h
22.10.2021 10:45 7,5 C 10,2 C 9,1 C 8,4 C 6,8 C 84 % 17 cb 1020,8 hPa 0,0 l/m 3,2 km/h N 360 5 min 361 W/m 6,4 km/h
22.10.2021 10:40 7,6 C 10,2 C 9,1 C 8,4 C 6,8 C 85 % 17 cb 1020,7 hPa 0,0 l/m 3,0 km/h N 360 5 min 352 W/m 4,8 km/h
22.10.2021 10:35 7,3 C 10,2 C 9,1 C 8,4 C 6,7 C 85 % 17 cb 1020,9 hPa 0,0 l/m 2,5 km/h N-NO 22 5 min 344 W/m 4,8 km/h
22.10.2021 10:30 7,2 C 10,2 C 9,1 C 8,4 C 6,6 C 85 % 17 cb 1020,9 hPa 0,0 l/m 2,5 km/h N 360 5 min 333 W/m 4,8 km/h
22.10.2021 10:25 7,4 C 10,2 C 9,1 C 8,4 C 6,7 C 85 % 17 cb 1020,9 hPa 0,0 l/m 3,2 km/h NO 45 5 min 324 W/m 6,4 km/h
22.10.2021 10:20 7,3 C 10,2 C 9,1 C 8,4 C 6,5 C 85 % 17 cb 1020,8 hPa 0,0 l/m 2,6 km/h O-NO 68 5 min 314 W/m 6,4 km/h
22.10.2021 10:15 7,1 C 10,2 C 9,1 C 8,4 C 6,3 C 85 % 17 cb 1021,0 hPa 0,0 l/m 1,0 km/h O 90 5 min 304 W/m 3,2 km/h
22.10.2021 10:10 7,0 C 10,2 C 9,1 C 8,4 C 6,3 C 85 % 17 cb 1021,1 hPa 0,0 l/m 1,7 km/h O-NO 68 5 min 295 W/m 4,8 km/h
22.10.2021 10:05 7,1 C 10,2 C 9,1 C 8,4 C 6,4 C 86 % 17 cb 1021,1 hPa 0,0 l/m 3,4 km/h O 90 5 min 287 W/m 6,4 km/h
22.10.2021 10:00 6,8 C 10,2 C 9,1 C 8,4 C 6,3 C 87 % 17 cb 1021,1 hPa 0,0 l/m 1,4 km/h O 90 5 min 277 W/m 3,2 km/h
22.10.2021 09:55 6,5 C 10,2 C 9,1 C 8,4 C 6,2 C 87 % 17 cb 1021,3 hPa 0,0 l/m 2,0 km/h N-NO 22 5 min 268 W/m 4,8 km/h
22.10.2021 09:50 6,5 C 10,2 C 9,1 C 8,4 C 6,1 C 87 % 17 cb 1021,1 hPa 0,0 l/m 6,3 km/h N 360 5 min 260 W/m 8,0 km/h
22.10.2021 09:45 6,8 C 10,2 C 9,1 C 8,4 C 6,3 C 86 % 17 cb 1021,1 hPa 0,0 l/m 5,1 km/h N 360 5 min 248 W/m 8,0 km/h
22.10.2021 09:40 6,8 C 10,2 C 9,1 C 8,4 C 6,3 C 86 % 17 cb 1021,0 hPa 0,0 l/m 2,5 km/h S 180 5 min 235 W/m 6,4 km/h
22.10.2021 09:35 6,6 C 10,2 C 9,1 C 8,4 C 6,2 C 87 % 17 cb 1021,0 hPa 0,0 l/m 3,0 km/h O-SO 112 5 min 224 W/m 8,0 km/h
22.10.2021 09:30 6,4 C 10,2 C 9,1 C 8,4 C 6,1 C 88 % 17 cb 1021,1 hPa 0,0 l/m 3,5 km/h O-NO 68 5 min 215 W/m 4,8 km/h
22.10.2021 09:25 6,2 C 10,2 C 9,1 C 8,4 C 6,1 C 88 % 17 cb 1021,2 hPa 0,0 l/m 1,2 km/h O-NO 68 5 min 202 W/m 3,2 km/h
22.10.2021 09:20 6,1 C 10,2 C 9,2 C 8,4 C 6,2 C 88 % 17 cb 1021,2 hPa 0,0 l/m 0,0 km/h N 360 5 min 192 W/m 0,0 km/h
22.10.2021 09:15 6,1 C 10,2 C 9,2 C 8,4 C 6,6 C 88 % 17 cb 1021,2 hPa 0,0 l/m 0,5 km/h O-NO 68 5 min 192 W/m 3,2 km/h
22.10.2021 09:10 6,1 C 10,2 C 9,2 C 8,6 C 6,9 C 88 % 17 cb 1021,2 hPa 0,0 l/m 2,1 km/h O-NO 68 5 min 195 W/m 4,8 km/h
22.10.2021 09:05 6,0 C 10,2 C 9,2 C 8,6 C 6,8 C 88 % 17 cb 1021,3 hPa 0,0 l/m 2,0 km/h O-NO 68 5 min 187 W/m 3,2 km/h
22.10.2021 09:00 5,9 C 10,2 C 9,2 C 8,6 C 6,7 C 89 % 17 cb 1021,2 hPa 0,0 l/m 0,0 km/h N 360 5 min 174 W/m 0,0 km/h
22.10.2021 08:55 5,7 C 10,2 C 9,2 C 8,6 C 5,9 C 90 % 17 cb 1021,1 hPa 0,0 l/m 2,5 km/h SO 135 5 min 154 W/m 4,8 km/h
22.10.2021 08:50 5,4 C 10,2 C 9,2 C 8,6 C 5,5 C 90 % 17 cb 1021,1 hPa 0,0 l/m 3,2 km/h SO 135 5 min 136 W/m 4,8 km/h
22.10.2021 08:45 5,5 C 10,2 C 9,2 C 8,6 C 5,5 C 90 % 17 cb 1020,9 hPa 0,0 l/m 3,0 km/h O 90 5 min 122 W/m 6,4 km/h
22.10.2021 08:40 5,5 C 10,2 C 9,2 C 8,6 C 5,6 C 91 % 17 cb 1020,9 hPa 0,0 l/m 0,7 km/h NW 315 5 min 120 W/m 4,8 km/h
22.10.2021 08:35 5,0 C 10,3 C 9,2 C 8,6 C 5,2 C 92 % 17 cb 1021,1 hPa 0,0 l/m 3,4 km/h W-NW 292 5 min 114 W/m 6,4 km/h
22.10.2021 08:30 4,7 C 10,3 C 9,3 C 8,6 C 4,7 C 92 % 17 cb 1021,1 hPa 0,0 l/m 3,5 km/h W 270 5 min 102 W/m 6,4 km/h
22.10.2021 08:25 4,3 C 10,3 C 9,3 C 8,6 C 4,1 C 92 % 17 cb 1021,2 hPa 0,0 l/m 2,3 km/h S-SO 158 5 min 86 W/m 4,8 km/h
22.10.2021 08:20 4,1 C 10,3 C 9,3 C 8,6 C 3,3 C 92 % 17 cb 1021,0 hPa 0,0 l/m 2,0 km/h S-SO 158 5 min 69 W/m 4,8 km/h
22.10.2021 08:15 4,2 C 10,3 C 9,3 C 8,6 C 3,1 C 91 % 17 cb 1020,9 hPa 0,0 l/m 2,0 km/h S-SO 158 0 min 29 W/m 4,8 km/h
22.10.2021 08:10 4,2 C 10,3 C 9,3 C 8,6 C 3,2 C 91 % 17 cb 1020,9 hPa 0,0 l/m 0,5 km/h S-SO 158 0 min 22 W/m 4,8 km/h
22.10.2021 08:05 4,3 C 10,3 C 9,3 C 8,6 C 3,4 C 91 % 17 cb 1020,8 hPa 0,0 l/m 2,0 km/h O-SO 112 0 min 16 W/m 4,8 km/h
22.10.2021 08:00 4,5 C 10,3 C 9,3 C 8,6 C 3,5 C 91 % 17 cb 1020,8 hPa 0,0 l/m 1,3 km/h N-NO 22 0 min 12 W/m 3,2 km/h
22.10.2021 07:55 4,6 C 10,3 C 9,3 C 8,6 C 3,7 C 91 % 17 cb 1020,7 hPa 0,0 l/m 2,3 km/h N-NO 22 0 min 8 W/m 4,8 km/h
22.10.2021 07:50 4,6 C 10,3 C 9,3 C 8,6 C 3,7 C 90 % 17 cb 1020,8 hPa 0,0 l/m 0,0 km/h N 360 0 min 5 W/m 0,0 km/h
22.10.2021 07:45 4,6 C 10,3 C 9,3 C 8,6 C 3,5 C 91 % 17 cb 1020,7 hPa 0,0 l/m 0,4 km/h N-NW 338 0 min 0 W/m 3,2 km/h
22.10.2021 07:40 4,7 C 10,3 C 9,4 C 8,6 C 3,7 C 90 % 17 cb 1020,5 hPa 0,0 l/m 1,0 km/h N-NW 338 0 min 0 W/m 3,2 km/h
22.10.2021 07:35 4,8 C 10,3 C 9,4 C 8,6 C 3,7 C 91 % 17 cb 1020,4 hPa 0,0 l/m 1,5 km/h N-NW 338 0 min 0 W/m 3,2 km/h
22.10.2021 07:30 4,8 C 10,3 C 9,4 C 8,7 C 3,5 C 91 % 17 cb 1020,4 hPa 0,0 l/m 0,7 km/h W 270 0 min 0 W/m 3,2 km/h
22.10.2021 07:25 4,8 C 10,3 C 9,4 C 8,7 C 3,7 C 91 % 17 cb 1020,4 hPa 0,0 l/m 2,1 km/h W 270 0 min 0 W/m 4,8 km/h
22.10.2021 07:20 4,7 C 10,3 C 9,4 C 8,7 C 4,1 C 91 % 17 cb 1020,5 hPa 0,0 l/m 5,0 km/h W 270 0 min 0 W/m 9,6 km/h
22.10.2021 07:15 4,3 C 10,3 C 9,4 C 8,7 C 3,3 C 91 % 17 cb 1020,7 hPa 0,0 l/m 2,4 km/h W-SW 248 0 min 0 W/m 6,4 km/h
22.10.2021 07:10 4,3 C 10,3 C 9,4 C 8,7 C 2,8 C 91 % 17 cb 1020,6 hPa 0,0 l/m 1,2 km/h W 270 0 min 0 W/m 6,4 km/h
22.10.2021 07:05 4,2 C 10,3 C 9,4 C 8,7 C 3,1 C 91 % 17 cb 1020,6 hPa 0,0 l/m 1,3 km/h W 270 0 min 0 W/m 3,2 km/h
22.10.2021 07:00 4,2 C 10,3 C 9,4 C 8,7 C 3,0 C 92 % 17 cb 1020,6 hPa 0,0 l/m 2,6 km/h NW 315 0 min 0 W/m 4,8 km/h
22.10.2021 06:55 4,1 C 10,3 C 9,4 C 8,7 C 2,8 C 91 % 17 cb 1020,7 hPa 0,0 l/m 4,3 km/h W-NW 292 0 min 0 W/m 9,6 km/h
22.10.2021 06:50 4,2 C 10,3 C 9,4 C 8,8 C 3,1 C 91 % 17 cb 1020,8 hPa 0,0 l/m 3,1 km/h W-NW 292 0 min 0 W/m 6,4 km/h
22.10.2021 06:45 4,1 C 10,3 C 9,4 C 8,8 C 2,9 C 92 % 17 cb 1020,9 hPa 0,0 l/m 4,4 km/h W-NW 292 0 min 0 W/m 9,6 km/h
22.10.2021 06:40 3,8 C 10,3 C 9,4 C 8,8 C 2,9 C 91 % 17 cb 1020,9 hPa 0,0 l/m 5,2 km/h W 270 0 min 0 W/m 9,6 km/h
22.10.2021 06:35 3,7 C 10,3 C 9,4 C 8,8 C 2,4 C 91 % 17 cb 1020,9 hPa 0,0 l/m 1,0 km/h S 180 0 min 0 W/m 4,8 km/h
22.10.2021 06:30 3,5 C 10,3 C 9,4 C 8,8 C 1,7 C 91 % 17 cb 1021,0 hPa 0,0 l/m 0,0 km/h N 360 0 min 0 W/m 0,0 km/h
22.10.2021 06:25 3,5 C 10,3 C 9,4 C 8,8 C 1,6 C 91 % 17 cb 1021,0 hPa 0,0 l/m 0,7 km/h S 180 0 min 0 W/m 1,6 km/h
22.10.2021 06:20 3,6 C 10,3 C 9,4 C 8,9 C 1,9 C 91 % 17 cb 1020,9 hPa 0,0 l/m 1,7 km/h S 180 0 min 0 W/m 3,2 km/h
22.10.2021 06:15 3,6 C 10,3 C 9,4 C 8,9 C 1,8 C 91 % 17 cb 1021,0 hPa 0,0 l/m 0,6 km/h S 180 0 min 0 W/m 3,2 km/h
22.10.2021 06:10 3,7 C 10,3 C 9,6 C 8,9 C 1,5 C 91 % 17 cb 1020,9 hPa 0,0 l/m 0,3 km/h S 180 0 min 0 W/m 1,6 km/h
22.10.2021 06:05 3,6 C 10,3 C 9,6 C 8,9 C 1,4 C 91 % 17 cb 1021,0 hPa 0,0 l/m 0,3 km/h S 180 0 min 0 W/m 1,6 km/h
22.10.2021 06:00 3,7 C 10,3 C 9,6 C 8,9 C 2,1 C 91 % 17 cb 1020,9 hPa 0,0 l/m 2,5 km/h S 180 0 min 0 W/m 4,8 km/h
22.10.2021 05:55 3,8 C 10,3 C 9,6 C 8,9 C 1,9 C 90 % 17 cb 1020,8 hPa 0,0 l/m 1,3 km/h O-SO 112 0 min 0 W/m 3,2 km/h
22.10.2021 05:50 4,2 C 10,3 C 9,6 C 8,9 C 1,9 C 90 % 17 cb 1020,7 hPa 0,0 l/m 1,3 km/h S-SO 158 0 min 0 W/m 3,2 km/h
22.10.2021 05:45 4,3 C 10,3 C 9,6 C 8,9 C 1,9 C 91 % 17 cb 1020,5 hPa 0,0 l/m 2,1 km/h S-SO 158 0 min 0 W/m 3,2 km/h
22.10.2021 05:40 4,2 C 10,3 C 9,6 C 8,9 C 1,9 C 91 % 17 cb 1020,4 hPa 0,0 l/m 1,3 km/h S-SO 158 0 min 0 W/m 3,2 km/h
22.10.2021 05:35 4,2 C 10,3 C 9,6 C 8,9 C 2,1 C 90 % 17 cb 1020,5 hPa 0,0 l/m 0,8 km/h S-SO 158 0 min 0 W/m 3,2 km/h
22.10.2021 05:30 4,3 C 10,3 C 9,6 C 8,9 C 2,4 C 90 % 17 cb 1020,4 hPa 0,0 l/m 1,6 km/h S-SO 158 0 min 0 W/m 3,2 km/h
22.10.2021 05:25 4,3 C 10,3 C 9,6 C 8,9 C 2,9 C 90 % 17 cb 1020,5 hPa 0,0 l/m 3,4 km/h S-SO 158 0 min 0 W/m 6,4 km/h
22.10.2021 05:20 4,4 C 10,3 C 9,6 C 8,9 C 3,1 C 90 % 17 cb 1020,5 hPa 0,0 l/m 1,3 km/h NW 315 0 min 0 W/m 3,2 km/h
22.10.2021 05:15 4,4 C 10,3 C 9,6 C 8,9 C 3,2 C 90 % 17 cb 1020,4 hPa 0,0 l/m 1,5 km/h NW 315 0 min 0 W/m 4,8 km/h
22.10.2021 05:10 4,4 C 10,3 C 9,6 C 8,9 C 3,2 C 89 % 17 cb 1020,3 hPa 0,0 l/m 2,7 km/h W 270 0 min 0 W/m 4,8 km/h
22.10.2021 05:05 4,6 C 10,3 C 9,6 C 8,9 C 3,3 C 89 % 17 cb 1020,2 hPa 0,0 l/m 1,3 km/h N-NO 22 0 min 0 W/m 3,2 km/h
22.10.2021 05:00 4,7 C 10,3 C 9,6 C 8,9 C 3,4 C 89 % 17 cb 1020,2 hPa 0,0 l/m 1,9 km/h N-NO 22 0 min 0 W/m 6,4 km/h
_ Min-Zeit 06:25 02:55 04:15 01:40 06:05 14:35 05:00 15:15 - 06:30 - - - - 06:30
Minimum _ 3,5 C 9,8 C 8,8 C 8,3 C 1,4 C 63 % 17 cb 1018,0 hPa - 0,0 km/h - - - - 0,0 km/h
_ Max-Zeit 14:50 05:00 05:00 16:55 14:05 06:45 05:00 04:20 05:00 16:00 - - 08:20 12:50 16:05
Maximum _ 12,4 C 10,3 C 9,6 C 9,1 C 23,5 C 92 % 17 cb 1028,2 hPa 0,0 l/m 11,3 km/h
O
- - 5 min 486 W/m 19,2 km/h
O
Durchschnitt _ 7,1 C 10,0 C 9,2 C 8,7 C 6,6 C 82 % 17 cb 1022,5 hPa #0,0 l/m 2,8 km/h O - #0 min. 0 W/m 6,0 km/h